Airfield :
LOGIN :

Register | Disclaimer

   EN    FR    IT 

 










Legend :    VFR   Marginal VFR   IFR   Intensive IFR   Very Intensive IFR
Visi :
Ceiling :
>= 8 km
>= 3000ft
5 to 8 km
1000 to 3000 ft
1500m to 5 km
500 to 1000 ft
800 to 1500m
200 to 500 ft
< 800m
< 200 ft
Symbols :   Thunderstorms  Fog  Heavy snow  Heavy precipitations  Wind > 20 kt
SIGMETs :     Misc.  Thunderstorms  Icing  Turbulence  Mountain Waves  Volcanic Ashes







- Airport Elevation : 101 ft
- IATA code : GLO
- Download approach charts


EGBJ - Gloucestershire

CURRENT METAR :
  • 111750Z 14007KT 9999 FEW016 SCT022 09/06 Q1021

EXPIRED METARs :
  • 111720Z 14006KT 9999 SCT020 09/06 Q1021
  • 111650Z 14007KT 9999 FEW020 09/06 Q1021
  • 111620Z 14008KT 9999 FEW020 SCT045 09/06 Q1021
  • 111550Z 14009KT 9999 BKN045 09/06 Q1021
  • 111520Z 14003KT 9999 FEW045 08/06 Q1021

TAF TAF EGBJ
Valid from the 11 at 18:00 until the 11 at 20:00 UTC


111658Z 1118/1120 16006KT 9999 SCT020
No reported NOTAMs for that airfield.



MET'MAP, your aeronautical weather chart ! - Copyright ORBIFLY December 2007 - Disclaimer

ORBIFLY MET'MAP TEAM :

Programming & Development : Alexandra Zaïnal
Concept & Development : Baudouin d'Aumeries
Co-Development & Prog : Marc-Olivier Méhu
Technical & hardware support : Manuel Goepfert

Contact : metmap@orbifly.com




SOURCES & CREDITS :

   NOAA